CW3577 Weather Reports


time (UTC)temp
F
wind
direction
speed
knots
gust
knots
rain 1hr
in
rain 24hr
in
rain mn
in
humidity
%
barometer
mb
20260507200110 62 286 1.7 15.6 0.00 0.23 0.04 33 1006.0
20260507194524 64 5 7.0 16.5 0.00 0.23 0.04 31 1006.0
20260507193048 64 257 3.5 14.8 0.00 0.23 0.04 33 1006.0
20260507191510 63 294 5.2 11.3 0.00 0.23 0.04 31 1006.3
20260507190036 64 211 3.5 10.4 0.00 0.25 0.04 35 1006.4
20260507184554 63 283 3.5 13.0 0.00 0.25 0.04 32 1006.6
20260507183031 63 281 5.2 11.3 0.00 0.25 0.04 35 1006.9
20260507181546 63 333 6.1 18.2 0.00 0.25 0.04 33 1006.9
20260507180015 63 225 6.1 16.5 0.00 0.25 0.04 30 1007.0
20260507174551 63 309 4.3 14.8 0.00 0.25 0.04 31 1007.0
20260507173100 63 315 9.6 13.9 0.00 0.25 0.04 32 1006.8
20260507173008 63 321 9.6 13.9 0.00 0.25 0.04 34 1006.8
20260507171523 62 284 4.3 15.6 0.00 0.25 0.04 38 1006.9
20260507170050 62 306 7.8 17.4 0.00 0.25 0.04 35 1007.1
20260507164512 62 242 1.7 13.0 0.00 0.25 0.04 37 1007.2
20260507163042 61 221 7.8 14.8 0.00 0.25 0.04 39 1007.5
20260507161609 61 284 3.5 12.2 0.00 0.25 0.04 47 1007.8
20260507160022 61 275 6.1 13.0 0.00 0.25 0.04 45 1007.8
20260507154542 61 184 7.0 14.8 0.00 0.25 0.04 41 1007.9
20260507153004 61 200 3.5 10.4 0.00 0.25 0.04 50 1007.8
20260507151529 58 332 4.3 12.2 0.00 0.25 0.04 53 1008.1
20260507150055 60 338 4.3 10.4 0.00 0.25 0.04 52 1008.2
20260507144522 60 318 3.5 7.8 0.00 0.25 0.04 52 1008.3
20260507143045 57 317 1.7 9.6 0.00 0.25 0.04 61 1008.3
20260507141507 60 273 3.5 10.4 0.00 0.25 0.04 56 1008.2
20260507140033 59 226 2.6 10.4 0.00 0.25 0.04 55 1008.2
20260507134611 60 252 1.7 10.4 0.00 0.25 0.04 55 1008.1
20260507133018 58 350 2.6 7.8 0.00 0.25 0.04 62 1008.2
20260507131539 58 298 4.3 8.7 0.00 0.25 0.04 58 1008.4
20260507130107 57 297 2.6 7.8 0.00 0.25 0.04 60 1008.6
20260507124523 57 9 2.6 7.0 0.00 0.25 0.04 65 1008.7
20260507123046 56 324 4.3 7.8 0.00 0.25 0.04 68 1008.7
20260507121504 55 325 2.6 5.2 0.00 0.25 0.04 71 1008.9
20260507120032 53 322 2.6 7.0 0.00 0.25 0.04 74 1008.8
20260507114550 50 284 0.9 7.8 0.00 0.25 0.04 81 1008.7
20260507113059 49 290 0.9 6.1 0.00 0.25 0.04 82 1008.7
20260507113001 49 271 2.6 6.1 0.00 0.25 0.04 82 1008.7
20260507111526 49 9 1.7 3.5 0.00 0.25 0.04 84 1008.5
20260507110047 48 355 0.0 1.7 0.00 0.25 0.04 84 1008.5
20260507104516 48 355 0.9 3.5 0.00 0.25 0.04 84 1008.4
20260507103036 48 348 0.0 2.6 0.00 0.25 0.04 84 1008.0
20260507101601 48 317 1.7 4.3 0.00 0.25 0.04 83 1007.8
20260507100023 48 327 1.7 6.1 0.00 0.25 0.04 83 1007.9
20260507094540 48 309 1.7 7.0 0.00 0.25 0.04 83 1007.9
20260507093007 48 311 0.0 7.8 0.00 0.25 0.04 84 1008.0
20260507091529 48 289 0.9 4.3 0.00 0.25 0.04 85 1008.1
20260507090053 48 305 0.9 8.7 0.00 0.25 0.04 85 1008.4
20260507084509 48 283 1.7 5.2 0.01 0.25 0.04 86 1008.0
20260507083040 49 286 0.9 6.1 0.02 0.25 0.04 86 1007.9
20260507081600 49 311 0.0 1.7 0.02 0.25 0.04 87 1007.8
20260507080018 50 313 0.9 6.1 0.02 0.25 0.04 84 1007.6
20260507074541 50 298 3.5 7.8 0.01 0.24 0.03 83 1007.9
20260507073010 51 290 7.0 10.4 0.00 0.23 0.02 82 1008.0
20260507071535 51 271 1.7 4.3 0.00 0.23 0.02 88 1007.3
20260507070050 51 269 0.0 3.5 0.00 0.23 0.02 88 1007.0
20260507064515 51 263 0.0 1.7 0.00 0.23 0.02 87 1006.9
20260507063033 52 263 0.0 1.7 0.00 0.23 0.02 87 1007.2
20260507061557 51 263 0.9 2.6 0.00 0.23 0.02 86 1007.0
20260507060023 52 290 1.7 4.3 0.00 0.23 0.02 85 1007.2
20260507054546 52 320 1.7 7.0 0.00 0.23 0.02 85 1007.3
20260507053005 52 325 3.5 10.4 0.00 0.23 0.02 86 1007.7
20260507051536 52 321 0.9 7.8 0.01 0.23 0.02 86 1007.4
20260507050057 53 306 2.6 7.8 0.02 0.23 0.02 87 1007.7
20260507044516 54 307 1.7 7.8 0.04 0.23 0.02 88 1007.2
20260507043030 55 327 4.3 11.3 0.04 0.23 0.02 89 1007.3
20260507041556 56 284 0.9 6.1 0.03 0.22 0.01 89 1007.1
20260507040019 56 302 2.6 7.0 0.02 0.21 0.21 88 1007.4
20260507034537 57 315 2.6 7.8 0.00 0.19 0.19 86 1007.2
20260507033055 57 323 1.7 13.9 0.00 0.19 0.19 86 1006.7
20260507031525 59 332 3.5 8.7 0.00 0.19 0.19 92 1006.3
20260507030039 59 334 2.6 7.8 0.00 0.19 0.19 93 1006.0
20260507024507 59 236 0.0 6.1 0.00 0.19 0.19 93 1006.2
20260507023027 59 237 1.7 5.2 0.00 0.19 0.19 93 1006.2
20260507021552 59 192 0.0 3.5 0.00 0.19 0.19 93 1006.0
20260507020027 59 192 0.0 3.5 0.00 0.19 0.19 92 1005.8
20260507014554 59 195 0.9 3.5 0.00 0.19 0.19 92 1005.9
20260507013021 59 171 0.0 5.2 0.00 0.19 0.19 92 1006.0
20260507011531 59 175 0.0 5.2 0.00 0.19 0.19 92 1006.0
20260507010053 59 205 0.9 5.2 0.00 0.19 0.19 92 1006.1
20260507004529 59 184 1.7 5.2 0.00 0.19 0.19 92 1005.9
20260507003037 59 165 1.7 8.7 0.00 0.19 0.19 92 1005.8
20260507001602 59 180 3.5 6.1 0.00 0.19 0.19 92 1005.7
20260507000028 59 171 4.3 8.7 0.02 0.19 0.19 92 1005.8
20260506234555 59 177 4.3 10.4 0.04 0.19 0.19 92 1005.6
20260506233019 59 196 2.6 8.7 0.06 0.19 0.19 92 1005.6
20260506231549 59 182 1.7 7.8 0.08 0.19 0.19 92 1005.6
20260506230004 59 161 1.7 5.2 0.09 0.17 0.17 92 1005.7
20260506224528 59 204 0.9 7.0 0.08 0.15 0.15 92 1005.8
20260506223054 59 232 1.7 7.0 0.06 0.13 0.13 91 1005.7
20260506221516 60 175 3.5 8.7 0.04 0.11 0.11 90 1005.9
20260506220031 60 180 4.3 11.3 0.02 0.08 0.08 90 1005.9
20260506214558 60 182 0.9 12.2 0.01 0.07 0.07 89 1006.1
20260506213018 60 173 4.3 12.2 0.02 0.07 0.07 89 1006.0
20260506211601 60 168 4.3 10.4 0.03 0.07 0.07 89 1006.3
20260506210103 60 168 7.0 9.6 0.03 0.06 0.06 89 1006.5
20260506204529 61 178 3.5 9.6 0.03 0.06 0.06 89 1006.6
20260506203052 62 169 2.6 8.7 0.02 0.05 0.05 88 1006.7
20260506201530 62 205 1.7 8.7 0.02 0.04 0.04 87 1006.6